Vorticity
7 17 3 7 4 12 4 -1 5 9 12 21 11 11 9 7 7 5 3 -0 4 11 14 17 8 12 12 8 7 9 9 10 13 6 10 18 13 14 11 13 5 6 2 6
4 -3 12 12 11 4 7 7 10 5 3 -3 10 13 5 10 14 5 5 7 14 10 12 9 5 4 4 9 9 12 13 12 15 9 11 15 9 8 17 6 7 3 3 4
15 3 -1 22 17 14 13 6 7 7 12 12 12 8 5 14 14 16 10 11 15 17 9 7 7 11 13 9 10 10 10 17 16 10 19 14 8 12 9 6 3 5 3 3
30 37 22 4 0 14 11 15 16 13 4 7 7 3 18 12 55 23 23 15 6 11 9 5 7 7 18 9 9 9 13 13 11 16 12 7 12 14 6 7 9 2 2 5
-1 3 0 17 19 2 -4 3 11 25 18 4 17 1 13 24 16 9 20 8 8 5 3 0 9 3 12 17 7 10 12 15 12 13 7 9 16 19 8 5 4 1 2 5
11 11 10 10 7 21 28 3 9 -2 -2 27 12 -8 14 11 -1 18 5 6 5 7 5 4 12 8 5 15 15 7 10 15 12 13 12 13 16 8 -0 7 6 -0 1 6
14 13 11 16 19 7 12 19 26 29 28 -11 36 16 -11 -5 54 7 7 2 3 2 9 7 1 6 7 10 13 11 11 12 10 15 16 13 12 7 3 5 3 -0 3 7
12 26 31 -1 22 13 18 14 -50 3 11 19 20 5 21 30 -19 10 11 3 -2 10 7 1 5 5 4 6 15 15 11 12 12 7 19 14 16 9 11 5 2 1 4 6
11 14 -58 -6 1 23 35 -0 20 -6 -13 10 11 54 -0 7 26 11 3 6 7 7 9 2 -4 7 13 18 15 13 13 13 10 9 11 15 12 11 6 3 2 2 4 6
10 15 10 8 7 15 3 19 21 12 17 5 22 11 -10 2 5 7 5 5 7 6 1 -1 17 7 8 8 10 19 12 19 11 12 11 11 17 10 6 3 1 2 4 7
15 13 11 9 -1 16 28 27 4 -0 -18 4 13 22 -3 6 7 5 1 3 2 -3 1 0 -5 9 7 -1 -1 13 16 11 10 18 12 8 9 17 4 4 2 1 5 8
3 30 9 10 -29 12 14 7 4 44 16 22 -29 -9 40 29 1 3 0 -0 8 -2 13 10 11 12 6 10 6 6 1 21 25 4 23 12 9 15 15 3 2 4 5 9
-0 6 27 35 35 -1 11 -1 9 18 21 1 23 3 10 12 -3 -6 -5 3 9 11 6 11 7 8 2 8 13 11 9 20 19 14 20 18 12 13 9 5 2 3 6 10
3 16 4 -13 -30 -1 4 4 6 4 13 6 2 32 -7 16 3 1 0 3 8 8 7 13 12 11 4 1 9 14 6 18 17 24 21 22 11 16 10 5 3 5 7 11
27 1 5 12 14 7 7 3 10 -0 3 7 -1 -10 -13 0 -1 3 11 6 7 7 6 17 13 7 2 -1 7 2 12 12 22 22 12 23 22 20 12 5 4 5 7 11
16 15 7 9 12 13 15 12 3 4 7 7 11 12 5 10 12 1 2 7 5 7 11 17 6 7 10 6 6 0 10 7 22 22 21 19 11 18 10 5 6 6 7 10
4 10 2 11 11 15 29 16 15 12 16 8 2 9 1 10 7 6 8 5 7 11 5 7 -8 9 7 8 4 3 -1 14 31 22 21 29 19 15 11 7 5 7 7 9
6 3 7 3 12 30 21 23 17 7 11 7 7 2 8 10 10 -4 3 15 13 10 -1 3 4 14 3 8 6 4 7 18 14 15 41 18 19 6 25 6 6 7 7 8
16 21 16 14 1 -17 10 19 18 12 24 15 14 16 9 9 4 18 8 16 1 12 7 9 12 12 6 9 6 8 12 10 -3 40 42 20 15 6 11 7 7 7 7 8
14 16 14 -5 3 5 22 6 3 14 21 4 11 11 7 2 11 13 15 15 17 9 17 19 18 14 13 15 9 6 11 4 11 59 24 11 6 19 11 7 6 7 7 8
25 18 37 15 14 17 12 6 23 23 -23 14 6 16 38 24 49 36 28 23 8 17 15 17 9 11 11 10 7 11 6 12 5 -4 51 21 17 13 5 5 7 7 8 8
26 23 -0 23 18 23 -7 16 -12 -11 9 5 19 9 34 16 3 7 8 18 13 6 7 10 14 11 10 8 14 13 15 17 4 6 32 44 3 11 4 10 7 5 7 8
13 17 21 45 -6 29 36 22 21 18 11 13 -9 53 8 12 15 8 14 13 9 13 11 13 13 11 10 7 17 17 20 25 2 -3 15 61 11 13 9 1 10 6 2 6
-5 9 2 23 17 -23 0 33 36 46 42 35 9 6 4 5 4 3 6 10 15 19 12 10 12 12 8 8 12 25 27 28 7 3 7 40 26 14 13 14 4 12 12 8
31 3 11 19 -1 15 6 11 7 16 13 11 12 8 5 5 5 7 8 7 7 15 13 14 9 10 9 7 21 24 21 25 3 11 10 41 20 26 25 14 16 7 8 8
-27 6 8 -2 9 17 7 5 13 8 6 3 4 12 17 3 1 5 6 5 6 6 14 19 14 7 8 9 26 19 12 14 10 12 24 -3 43 35 30 22 12 6 6 12
Height
3048 3047 3045 3050 3051 3050 3051 3050 3047 3046 3047 3048 3047 3045 3046 3047 3048 3049 3052 3053 3053 3054 3055 3057 3056 3054 3053 3054 3055 3057 3059 3060 3060 3060 3061 3062 3065 3069 3073 3075 3077 3079 3081 3081
3048 3039 3044 3045 3046 3045 3045 3044 3040 3042 3044 3046 3045 3040 3040 3040 3040 3042 3045 3046 3047 3049 3050 3050 3050 3047 3046 3048 3048 3048 3049 3051 3052 3052 3053 3054 3059 3062 3066 3069 3071 3072 3073 3073
3040 3038 3040 3040 3039 3039 3038 3038 3037 3038 3040 3039 3040 3032 3033 3032 3032 3034 3036 3039 3042 3042 3044 3043 3042 3043 3042 3041 3041 3041 3041 3041 3043 3045 3045 3047 3051 3054 3058 3061 3064 3067 3068 3067
3035 3034 3033 3033 3032 3035 3031 3035 3035 3035 3035 3031 3037 3020 3022 3022 3020 3025 3028 3032 3034 3036 3036 3037 3036 3037 3035 3034 3035 3035 3035 3035 3036 3037 3037 3041 3045 3048 3052 3055 3058 3060 3060 3060
3031 3030 3029 3025 3026 3031 3024 3031 3031 3029 3029 3028 3024 3022 3012 3014 3017 3020 3023 3026 3029 3030 3030 3030 3031 3030 3030 3029 3029 3028 3028 3028 3029 3030 3032 3035 3038 3041 3045 3048 3051 3053 3054 3053
3024 3025 3023 3020 3022 3023 3025 3027 3026 3028 3028 3022 3012 3016 3006 3008 3011 3015 3020 3022 3023 3024 3023 3025 3025 3026 3025 3024 3023 3022 3021 3022 3023 3025 3027 3029 3032 3036 3039 3041 3044 3046 3047 3046
3019 3016 3015 3015 3015 3018 3020 3023 3023 3021 3018 3000 3007 3006 3001 3003 3002 3008 3014 3019 3019 3019 3019 3021 3021 3021 3021 3019 3018 3017 3017 3017 3017 3018 3021 3023 3026 3030 3033 3036 3038 3039 3041 3040
3018 3013 3011 3009 3011 3011 3010 3013 3015 3009 2998 2993 2997 2995 2995 3000 3002 3003 3009 3014 3014 3016 3016 3016 3016 3016 3016 3015 3013 3012 3012 3011 3012 3013 3015 3017 3020 3024 3028 3030 3033 3032 3034 3033
3018 3012 3008 3009 3008 3010 3007 3005 3008 3006 3002 3000 2990 2990 2994 2996 2998 3002 3007 3010 3012 3012 3012 3013 3012 3011 3011 3009 3007 3006 3005 3005 3007 3008 3009 3012 3015 3017 3020 3024 3026 3027 3027 3028
3019 3012 3009 3008 3004 3005 3001 3003 3004 3004 2998 2995 2986 2984 2986 2992 2996 3000 3005 3006 3010 3009 3008 3008 3008 3008 3005 3004 3001 2999 2998 2998 2999 3001 3003 3006 3008 3012 3014 3018 3019 3021 3021 3021
3016 3013 3008 3004 3002 2998 2997 2997 2996 2997 2996 2985 2982 2981 2988 2989 2993 2997 3001 3002 3004 3004 3004 3004 3003 3002 3000 2997 2995 2993 2991 2990 2992 2994 2996 2999 3001 3004 3007 3012 3013 3016 3016 3015
3013 3007 3003 3000 2995 2995 2995 2993 2991 2989 2986 2986 2983 2982 2981 2983 2992 2994 2997 2998 2998 2999 3000 3000 2998 2997 2994 2990 2989 2987 2985 2982 2983 2985 2987 2991 2994 2997 3002 3006 3008 3010 3011 3010
3010 3005 3001 2994 2991 2993 2993 2993 2992 2990 2989 2986 2980 2983 2984 2985 2989 2991 2993 2994 2994 2994 2995 2995 2996 2994 2990 2984 2981 2980 2978 2975 2974 2976 2978 2982 2986 2990 2994 2997 3001 3003 3005 3006
3009 3005 3002 2996 2989 2993 2994 2991 2991 2991 2988 2982 2980 2976 2978 2982 2987 2989 2989 2991 2991 2990 2991 2990 2990 2989 2987 2980 2975 2973 2971 2968 2967 2967 2969 2973 2978 2982 2986 2990 2994 2997 2999 3000
3004 3001 2999 2996 2989 2988 2987 2988 2988 2987 2986 2984 2975 2977 2980 2984 2986 2986 2985 2984 2985 2986 2986 2985 2984 2983 2977 2972 2970 2968 2964 2961 2960 2961 2962 2966 2969 2974 2979 2984 2987 2991 2993 2995
2999 2995 2996 2993 2990 2986 2982 2981 2983 2983 2984 2982 2979 2975 2978 2981 2980 2980 2980 2981 2981 2981 2980 2980 2976 2972 2968 2966 2965 2963 2960 2956 2954 2955 2956 2960 2962 2966 2971 2976 2981 2984 2987 2990
2999 2997 2994 2989 2987 2983 2979 2976 2976 2977 2978 2979 2977 2976 2977 2976 2975 2975 2975 2975 2974 2974 2971 2970 2966 2964 2962 2960 2958 2957 2954 2951 2948 2948 2948 2953 2955 2960 2964 2970 2973 2978 2981 2985
2996 2995 2993 2988 2985 2980 2974 2973 2972 2972 2974 2974 2973 2973 2973 2972 2970 2968 2968 2967 2968 2966 2963 2961 2958 2957 2955 2953 2952 2951 2948 2945 2942 2942 2941 2946 2949 2954 2959 2963 2967 2972 2976 2980
2994 2991 2988 2986 2982 2978 2973 2971 2971 2971 2971 2971 2969 2968 2965 2961 2960 2965 2959 2958 2958 2957 2956 2954 2951 2950 2948 2947 2946 2945 2942 2939 2937 2934 2934 2938 2942 2948 2952 2955 2961 2967 2971 2975
2987 2984 2985 2982 2980 2974 2973 2973 2972 2971 2967 2965 2961 2958 2957 2955 2953 2955 2953 2953 2952 2951 2949 2948 2945 2944 2943 2941 2939 2939 2936 2932 2930 2928 2927 2929 2933 2940 2944 2950 2955 2962 2966 2970
2984 2979 2974 2976 2976 2973 2970 2970 2968 2969 2969 2962 2961 2959 2954 2953 2951 2951 2949 2948 2947 2945 2945 2942 2941 2939 2937 2934 2933 2932 2929 2926 2924 2921 2917 2919 2924 2931 2938 2943 2951 2956 2961 2965
2989 2984 2979 2975 2970 2964 2967 2968 2966 2964 2963 2961 2959 2956 2952 2948 2948 2949 2948 2945 2943 2942 2940 2938 2936 2933 2930 2927 2926 2924 2921 2919 2918 2913 2912 2912 2914 2924 2930 2937 2944 2950 2954 2959
2993 2991 2985 2982 2980 2976 2968 2966 2965 2964 2962 2959 2954 2952 2952 2952 2949 2948 2946 2944 2941 2939 2936 2933 2931 2927 2924 2923 2921 2916 2912 2912 2911 2906 2904 2902 2906 2917 2925 2931 2937 2944 2948 2953
2992 2989 2986 2982 2980 2974 2971 2966 2963 2961 2958 2956 2954 2953 2953 2952 2950 2947 2945 2942 2938 2935 2933 2929 2927 2923 2920 2918 2913 2909 2906 2906 2905 2902 2899 2894 2899 2908 2916 2923 2930 2936 2942 2947
2992 2990 2986 2982 2979 2975 2972 2968 2965 2962 2960 2957 2956 2954 2952 2950 2947 2945 2942 2939 2936 2933 2929 2925 2922 2918 2916 2913 2909 2905 2902 2900 2900 2899 2898 2895 2890 2900 2906 2914 2921 2929 2936 2943
2991 2988 2985 2983 2979 2976 2972 2969 2966 2963 2961 2958 2956 2954 2951 2949 2946 2943 2939 2936 2933 2930 2926 2922 2918 2915 2912 2908 2904 2902 2900 2898 2897 2897 2897 2894 2892 2893 2897 2908 2916 2922 2930 2937